date,batt_volt,AirTemp_C,Solar_kW,RH,Manual_BP,StationID,WS_ms,PTemp,WS_15min_max,Prog_Sig,Solar_Raw,Bar_mbar,Solar_MJ,Max_WS_2min,Pressure_Raw,Rain_mm,WD_15min_ave,Max_AirTemp_1min,WindDir,WS_15min_med,WS_15min_ave,Elevation_Correction
2021-10-01T00:08:34Z,13.27802,13.30399,0.0,83.19218,0,1156,3.2732,13.23446,4.998,43690,0.0,1012.91,0.0,3.45,1011.109,0,169.239633052,13.37,185.957,2.8028,2.89453727811,1.80078
2021-10-01T00:23:34Z,13.28354,12.4907,0.0,85.05594,0,1156,1.0584,13.18702,2.9792,43690,0.0,1012.91,0.0,2.156,1011.109,0,163.219131644,12.52,218.8225,1.7444,1.6546526269,1.80078
2021-10-01T00:38:37Z,13.29458,11.91507,0.0,85.39554,0,1156,1.47,12.90687,2.9596,43690,0.0,1012.91,0.0,2.332,1011.109,0,82.9660448022,11.92,209.1283,1.6856,1.66565613801,1.80078
2021-10-01T00:53:36Z,13.30762,11.31155,0.0,86.8975,0,1156,1.5876,12.41887,2.4696,43690,0.0,1012.91,0.0,2.274,1011.109,0,65.5758381568,11.31,38.06748,1.1956,1.27098460237,1.80078
2021-10-01T01:08:35Z,13.31917,11.04337,0.0,87.5126,0,1156,2.352,11.90828,2.7048,43690,0.0,1013.887,0.0,2.528,1012.086,0,60.8287963248,11.11,44.08574,1.6268,1.5457166631,1.80078
2021-10-01T01:23:34Z,13.33213,11.11806,0.0,87.35494,0,1156,1.666,11.61007,2.5088,43690,0.0,1013.887,0.0,2.156,1012.086,0,52.080155174,11.22,36.12535,1.9012,1.89783668639,1.80078
2021-10-01T01:38:34Z,13.32668,11.05084,0.0,88.50847,0,1156,0.7644,11.51744,2.1168,43690,0.0,1013.887,0.0,1.352,1012.086,0,60.7847848633,11.15,58.74948,1.1368,1.18614999226,1.80078
2021-10-01T01:53:38Z,13.32668,10.74576,0.0,90.06779,0,1156,0.49,11.38188,1.372,43690,0.0,1013.887,0.0,1.019,1012.086,0,68.5933851444,10.81,80.50678,0.7056,0.70931122426,1.80078
2021-10-01T02:08:37Z,13.33773,10.33898,0.0,91.18644,0,1156,0.9408,11.12884,1.3328,43690,0.0,1013.326,0.0,1.117,1011.525,0,83.8302208008,10.31,172.7827,0.4998,0.476816659524,1.80078
2021-10-01T02:23:38Z,13.34325,10.47458,0.0,91.93221,0,1156,1.0192,10.7877,1.7836,43690,0.0,1013.326,0.0,1.215,1011.525,0,185.502380247,10.58,200.3403,1.0388,1.07034554793,1.80078
2021-10-01T02:38:38Z,13.34876,9.796612,0.0,92.61017,0,1156,0.7056,10.51659,1.176,43690,0.0,1013.326,0.0,1.039,1011.525,0,92.9172690397,9.83,81.42136,0.8035999,0.593949975595,1.80078
2021-10-01T02:53:40Z,13.35429,9.898304,0.0,93.15254,0,1156,0.3528,10.38103,1.0584,43690,0.0,1013.326,0.0,0.804,1011.525,0,87.0826246113,10.07,74.39356,0.588,0.567356193491,1.80078
2021-10-01T03:08:37Z,13.35429,9.830509,0.0,93.76271,0,1156,0.0784,10.24548,0.9015999,43690,0.0,1014.14,0.0,0.333,1012.339,0,85.6433739014,9.929999,73.1661,0.4704,0.448116660714,1.80078
2021-10-01T03:23:39Z,13.35429,10.0678,0.0,93.62712,0,1156,0.6076,10.15511,1.4896,43690,0.0,1014.14,0.0,0.8620001,1012.339,0,68.5069977412,10.37,76.31898,0.5684,0.564108869822,1.80078
2021-10-01T03:38:41Z,13.35981,10.16949,0.0,94.0339,0,1156,0.5096,10.13251,1.2936,43690,0.0,1014.14,0.0,0.98,1012.339,0,78.6134881191,10.2,64.50169,0.6664,0.706875729586,1.80078
2021-10-01T03:53:37Z,13.35429,10.30508,0.0,94.06779,0,1156,0.4116,10.20029,1.1956,43690,0.0,1014.14,0.0,1.058,1012.339,0,72.3599204944,10.34,52.90102,0.49,0.502599989286,1.80078
2021-10-01T04:08:38Z,13.34876,10.54237,0.0,94.1695,0,1156,0.5096,10.29066,1.6072,43690,0.0,1013.896,0.0,1.117,1012.095,0,79.5853446549,10.58,79.15898,0.6076,0.58185324497,1.80078
2021-10-01T04:23:42Z,13.34876,10.91525,0.0,93.55932,0,1156,1.3524,10.35844,2.0776,43690,0.0,1013.896,0.0,0.784,1012.095,0,61.4020480469,10.88,37.25695,1.00939995,0.974581169412,1.80078
2021-10-01T04:38:42Z,13.35429,10.30508,0.0,93.32204,0,1156,0.4508,10.31325,1.3524,43690,0.0,1013.896,0.0,1.156,1012.095,0,80.5831879935,10.31,78.34067,0.3724,0.435723073373,1.80078
2021-10-01T04:53:41Z,13.35429,10.47458,0.0,93.8983,0,1156,0.588,10.24548,1.8816,43690,0.0,1013.896,0.0,0.98,1012.095,0,62.3998467202,10.47,64.35729,0.8428,0.857181053254,1.80078
2021-10-01T05:08:40Z,13.35981,10.50848,0.0,93.76271,0,1156,1.5876,10.15511,2.2148,43690,0.0,1013.245,0.0,1.999,1011.444,0,54.3330678244,10.64,47.79864,1.3328,1.33477158817,1.80078
2021-10-01T05:23:39Z,13.35981,10.57627,0.0,93.35594,0,1156,1.6268,10.10992,2.0972,43690,0.0,1013.245,0.0,1.882,1011.444,0,51.842702145,10.64,46.47492,1.3524,1.36678105917,1.80078
2021-10-01T05:38:38Z,13.35429,10.64407,0.0,92.94915,0,1156,1.274,10.10992,2.3716,43690,0.0,1013.245,0.0,2.372,1011.444,0,59.0250364857,10.81,42.84068,1.2544,1.27423194379,1.80078
2021-10-01T05:53:40Z,13.35429,10.81356,0.0,92.33898,0,1156,1.2544,10.15511,2.0384,43690,0.0,1013.245,0.0,1.744,1011.444,0,71.2750916391,10.81,46.21017,1.176,1.16359052426,1.80078
2021-10-01T06:08:40Z,13.35429,10.64407,0.0,91.49152,0,1156,1.2936,10.10992,1.8032,43690,0.0,1013.652,0.0,1.294,1011.851,0,58.558661816,10.81,54.22475,1.2152,1.2161278,1.80078
2021-10-01T06:23:39Z,13.36533,9.898304,0.0,91.72882,0,1156,2.2344,9.99696,2.45,43690,0.0,1013.652,0.0,1.744,1011.851,0,61.1453396628,10.07,206.0925,1.274,1.26495383669,1.80078
2021-10-01T06:38:39Z,13.36552,10.40733,0.0,90.47557,0,1156,1.7248,9.92918,2.9596,43690,0.0,1013.652,0.0,1.803,1011.851,0,191.558975947,10.58,188.6936,1.8228,1.86153609172,1.80078
2021-10-01T06:53:40Z,13.36534,10.81463,0.0,91.25615,0,1156,2.0188,9.92918,2.94,43690,0.0,1013.652,0.0,2.176,1011.851,0,184.530587244,10.75,216.3018,1.5288,1.51372306923,1.80078
2021-10-01T07:08:44Z,13.35987,10.84786,0.0,88.88205,0,1156,1.5288,10.04215,2.4304,43690,0.0,1013.654,0.0,1.803,1011.853,0,195.894539824,11.05,193.29,1.6562,1.64132705882,1.80078
2021-10-01T07:23:43Z,13.35429,10.91528,0.0,87.86445,0,1156,1.4112,10.15511,2.5284,43690,0.0,1013.654,0.0,1.842,1011.853,0,192.834671508,11.15,211.9411,1.7444,1.69128283846,1.80078
2021-10-01T07:38:41Z,13.35981,9.762734,0.0,90.8475,0,1156,0.9015999,10.04215,1.9208,43690,0.0,1013.654,0.0,1.862,1011.853,0,180.519984839,9.929999,218.9207,1.2544,1.21983904379,1.80078
2021-10-01T07:53:45Z,13.36533,10.4746,0.0,92.13563,0,1156,1.4896,9.951778,2.8224,43690,0.0,1013.654,0.0,2.234,1011.853,0,183.033400144,10.41,199.6184,1.274,1.35482116706,1.80078
2021-10-01T08:08:43Z,13.36533,10.74646,0.0,89.52666,0,1156,2.5088,9.974369,3.4496,43690,0.0,1013.733,0.0,3.332,1011.932,0,176.282840036,10.88,166.2386,2.2344,2.27707928935,1.80078
2021-10-01T08:23:42Z,13.36533,10.5085,0.0,88.40683,0,1156,1.7444,9.90659,3.3908,43690,0.0,1013.733,0.0,2.901,1011.932,0,174.135093062,10.58,53.16579,2.1168,2.0309775142,1.80078
2021-10-01T08:38:41Z,13.37154,10.30613,0.0,88.81541,0,1156,1.568,9.750698,2.5872,43690,0.0,1013.733,0.0,2.254,1011.932,0,102.815369319,10.31,181.5231,0.9995999,1.08611833254,1.80078
2021-10-01T08:53:43Z,13.37765,9.971866,0.0,89.84087,0,1156,1.5484,9.547367,2.548,43690,0.0,1013.733,0.0,2.019,1011.932,0,179.748660907,9.939999,199.6654,1.5288,1.51639053018,1.80078
2021-10-01T09:08:43Z,13.38039,9.877514,0.0,90.19319,0,1156,1.764,9.479595,2.0384,43690,0.0,1013.747,0.0,2.136,1011.947,0,64.4391080548,9.979999,47.52232,1.1368,1.16069111183,1.80078
2021-10-01T09:23:44Z,13.3741,10.04633,0.0,90.09017,0,1156,2.0384,9.569958,3.038,43690,0.0,1013.747,0.0,2.901,1011.947,0,63.9479355542,10.11,175.7386,1.5092,1.49968993669,1.80078
2021-10-01T09:38:45Z,13.3727,10.21447,0.0,90.18939,0,1156,2.5676,9.592556,3.5476,43690,0.0,1013.747,0.0,3.097,1011.947,0,184.394080535,10.21,183.3167,2.1168,2.1078698213,1.80078
2021-10-01T09:53:46Z,13.37973,10.18276,0.0,90.9732,0,1156,2.3128,9.547367,5.096,43690,0.0,1013.747,0.0,3.881,1011.947,0,169.965402478,10.32,181.471,2.9792,3.02953372781,1.80078
2021-10-01T10:08:47Z,13.37956,10.31871,0.001929761,89.99046,0,1156,4.7236,9.479595,5.1352,43690,0.1350833,1014.993,9.648808e-06,3.371,1013.192,0,175.261418829,10.39,166.5461,3.1164,3.13472426036,1.80078
2021-10-01T10:23:43Z,13.38629,9.91407,0.007719057,89.4859,0,1156,2.0188,9.414074,4.018,43690,0.540334,1014.993,3.859528e-05,2.391,1013.192,0,184.2306753,10.02,34.3556,2.2442,2.24151666548,1.80078
2021-10-01T10:38:47Z,13.38642,9.745319,0.01350838,88.80913,0,1156,2.6656,9.258182,3.332,43690,0.9455863,1014.993,6.754187e-05,2.332,1013.192,0,191.472844995,9.78,193.2322,2.0188,2.07829585799,1.80078
2021-10-01T10:53:44Z,13.39195,9.40657,0.02750067,88.77584,0,1156,1.6072,9.122631,2.7832,43690,1.925047,1014.993,0.0001375033,2.783,1013.192,0,188.628659485,9.54,209.2923,1.8816,1.87915,1.80078
2021-10-01T11:08:45Z,13.39195,9.711758,0.1452217,88.09764,0,1156,2.2736,9.079701,3.9788,43690,10.16552,1015.371,0.0007261083,2.372,1013.571,0,179.339123977,9.75,56.1692,1.7052,1.73744141775,1.80078
2021-10-01T11:23:47Z,13.37538,10.45778,0.04728226,84.87622,0,1156,2.3324,9.592556,4.0572,43690,3.309758,1015.371,0.0002364113,4.057,1013.571,0,181.512712673,10.49,199.9749,2.254,2.26281420118,1.80078
2021-10-01T11:38:49Z,13.34489,10.30971,0.05499127,84.21113,0,1156,2.4304,10.26807,3.92,43690,3.849389,1015.371,0.0002749564,3.763,1013.571,0,178.242012138,10.51,180.3084,2.0776,2.03515265976,1.80078
2021-10-01T11:53:49Z,13.33224,11.05096,0.2681947,82.98325,0,1156,3.5476,10.69733,3.9592,43690,18.77363,1015.371,0.001340974,3.959,1013.571,0,174.78303497,11.08,168.7156,2.058,2.1023029568,1.80078
2021-10-01T12:08:45Z,13.29909,11.83053,0.3130545,79.66105,0,1156,2.5872,11.84051,4.6844,43690,21.91381,1015.605,0.001565272,4.684,1013.804,0,169.388099129,11.83,192.9516,2.254,2.36646666607,1.80078
2021-10-01T12:23:48Z,13.2697,11.82397,0.3631273,75.92262,0,1156,4.312,13.00177,5.7428,43690,25.41891,1015.605,0.001815636,5.429,1013.804,0,162.229460633,11.83,165.3008,3.3908,3.55467455621,1.80078
2021-10-01T12:38:45Z,13.25064,12.49161,0.4040857,74.65398,0,1156,4.998,13.99131,6.0564,43690,28.286,1015.605,0.002020429,5.155,1013.804,0,162.859186862,12.53,148.0176,4.018,4.00178333333,1.80078
2021-10-01T12:53:48Z,13.22203,12.68718,0.4580277,72.61005,0,1156,4.5472,15.11642,6.1544,43690,32.06194,1015.605,0.002290138,5.508,1013.804,0,156.154647561,12.72,147.4665,4.214,4.31130414201,1.80078
2021-10-01T13:08:48Z,13.202,13.25235,0.530249,72.76467,0,1156,5.3312,16.09242,6.37,43690,37.11744,1016.254,0.002651245,5.37,1014.454,0,151.048041616,13.22,148.2783,5.1156,4.94407100592,1.80078
2021-10-01T13:23:50Z,13.19077,13.59081,0.5302427,72.45938,0,1156,4.8608,16.95997,6.3504,43690,37.11699,1016.254,0.002651213,6.056,1014.454,0,153.033336879,13.59,157.0804,4.802,4.72244023669,1.80078
2021-10-01T13:38:47Z,13.17797,13.48112,0.6054407,73.66778,0,1156,4.9392,17.64,6.2328,43690,42.38085,1016.254,0.003027203,5.449,1014.454,0,144.7973877,13.69,142.2191,4.8412,4.81355,1.80078
2021-10-01T13:53:50Z,13.17549,13.84394,0.6198471,70.26803,0,1156,5.6252,17.84333,6.6444,43690,43.3893,1016.254,0.003099235,5.704,1014.454,0,145.86285196,13.88,147.6272,4.9196,4.83795266272,1.80078
2021-10-01T14:08:50Z,13.16425,13.5388,0.1725414,72.1978,0,1156,4.8804,18.27711,5.6252,43690,12.07789,1016.709,0.0008627067,5.606,1014.908,0,147.074180895,13.78,153.589,4.41,4.31930650888,1.80078
2021-10-01T14:23:47Z,13.17528,14.11449,0.6761864,71.58825,0,1156,5.5272,18.17319,6.9972,43690,47.33304,1016.709,0.003380932,6.468,1014.908,0,143.924742386,14.05,140.5815,5.4782,5.4253499881,1.80078
2021-10-01T14:38:50Z,13.15321,14.72404,0.5262724,71.18189,0,1156,5.6644,18.71315,7.2324,43690,36.83907,1016.709,0.002631362,6.84,1014.908,0,139.458306697,14.79,151.7376,5.7624,5.69408990533,1.80078
2021-10-01T14:53:51Z,13.14219,15.09654,0.7570298,68.74368,0,1156,6.566,19.36381,7.310799,43690,52.99209,1016.709,0.003785149,7.056,1014.908,0,140.791989584,15.1,135.8931,5.88,5.77248989349,1.80078
2021-10-01T15:08:52Z,13.12705,14.84263,0.7117311,69.09494,0,1156,6.487599,19.9964,8.33,43690,49.82118,1016.116,0.003558656,7.703001,1014.315,0,140.372103778,15.08,131.4046,6.389599,6.41859393491,1.80078
2021-10-01T15:23:48Z,13.11569,15.11176,0.7053399,67.73872,0,1156,5.7428,20.39629,8.0164,43690,49.3738,1016.116,0.0035267,7.330001,1014.315,0,138.741151247,15.08,148.2252,6.4484,6.44046655357,1.80078
2021-10-01T15:38:51Z,13.11568,15.58566,0.7308092,66.38458,0,1156,7.5264,20.71711,8.1536,43690,51.15664,1016.116,0.003654046,7.507001,1014.315,0,138.198397395,15.82,142.6249,6.4092,6.38217740237,1.80078
2021-10-01T15:53:51Z,13.11568,15.99189,0.7322072,67.67097,0,1156,8.0164,21.01532,8.3692,43690,51.2545,1016.116,0.003661036,7.82,1014.315,0,138.596165867,15.89,141.5193,6.3308,6.25379162722,1.80078
2021-10-01T16:08:52Z,13.11017,15.4841,0.7336501,68.72039,0,1156,8.447599,21.17799,8.8004,43690,51.35551,1016.533,0.00366825,8.49,1014.733,0,141.274471818,15.69,141.303,7.1932,7.0373276213,1.80078
2021-10-01T16:23:53Z,13.11017,15.95804,0.6223742,64.25188,0,1156,7.114799,21.06955,8.722,43690,43.56619,1016.533,0.003111871,8.7,1014.733,0,139.863494713,16.03,135.1981,6.762,6.82717856213,1.80078
2021-10-01T16:38:49Z,13.11017,16.02574,0.7158267,64.31958,0,1156,8.3496,21.06955,9.6432,43690,50.10787,1016.533,0.003579134,7.703001,1014.733,0,137.775405973,16.16,141.0627,7.4284,7.44414977381,1.80078
2021-10-01T16:53:51Z,13.10465,15.92418,0.7037838,67.16318,0,1156,6.781599,21.09666,8.9768,43690,49.26487,1016.533,0.003518919,7.762001,1014.733,0,136.537750931,16.16,142.1442,7.7224,7.62996660355,1.80078
2021-10-01T17:08:51Z,13.10465,16.39811,0.6927044,67.67097,0,1156,6.8208,21.09666,8.9768,43690,48.48931,1016.127,0.003463522,8.979999,1014.326,0,138.185233516,16.36,138.3947,6.7424,6.77394544379,1.80078
2021-10-01T17:23:53Z,13.10465,16.53352,0.6743993,66.48613,0,1156,6.5268,21.09666,8.741599,43690,47.20795,1016.127,0.003371996,8.7,1014.326,0,140.642984208,16.53,138.539,7.3304,7.32088978698,1.80078
2021-10-01T17:38:54Z,13.10465,16.63508,0.6527222,64.6581,0,1156,5.8604,21.15088,8.623999,43690,45.69055,1016.127,0.003263611,8.13,1014.326,0,139.954068831,16.7,133.0109,7.114799,7.03929923077,1.80078
2021-10-01T17:53:55Z,13.10465,16.53352,0.6281548,64.01491,0,1156,7.35,21.42425,8.1144,43690,43.97083,1016.127,0.003140774,7.174,1014.326,0,141.300848864,16.84,138.2025,6.664,6.62955494083,1.80078
2021-10-01T18:08:50Z,13.09363,16.70279,0.6021422,62.42384,0,1156,7.310799,21.72473,7.7812,43690,42.14996,1015.477,0.003010711,6.625,1013.676,0,140.675774726,16.91,139.0918,6.4582,6.41643325595,1.80078
2021-10-01T18:23:53Z,13.09261,16.2253,0.572276,65.29717,0,1156,6.2132,22.00036,7.546,43690,40.05932,1015.477,0.00286138,6.762,1013.676,0,140.027985068,16.5,139.9963,6.174,6.1031384142,1.80078
2021-10-01T18:38:54Z,13.09119,16.55465,0.5400012,64.23741,0,1156,6.7228,22.11332,7.271599,43690,37.80008,1015.477,0.002700006,6.723001,1013.676,0,142.073524659,16.86,145.2361,6.0956,6.02601414793,1.80078
2021-10-01T18:53:55Z,13.08636,16.86102,0.5000189,63.35942,0,1156,6.8992,22.08395,7.6832,43690,35.00132,1015.477,0.002500094,6.86,1013.676,0,141.410073048,16.93,141.6361,6.2132,6.17933484615,1.80078
2021-10-01T19:08:54Z,13.09148,16.45821,0.4653355,64.98787,0,1156,6.468,21.88965,7.9576,43690,32.57349,1016.295,0.002326678,7.272,1014.494,0,141.061711118,16.59,140.1545,6.6052,6.56194066272,1.80078
2021-10-01T19:23:55Z,13.10406,16.2956,0.4243898,66.75581,0,1156,5.4488,21.69762,7.467599,43690,29.70729,1016.295,0.002121949,6.429,1014.494,0,139.865414154,16.46,138.6808,6.0564,6.08295851479,1.80078
2021-10-01T19:38:57Z,13.10464,16.43184,0.3805539,65.53812,0,1156,6.0956,21.36777,7.5068,43690,26.63877,1016.295,0.001902769,7.507001,1014.494,0,141.359106441,16.47,144.0427,6.1348,6.06846147929,1.80078
2021-10-01T19:53:52Z,13.12119,16.36424,0.3371996,63.54094,0,1156,5.8016,20.63803,6.8404,43690,23.60398,1016.295,0.001685998,6.174,1014.494,0,144.196703648,16.43,142.0,5.7232,5.65973330952,1.80078
2021-10-01T20:08:53Z,13.14324,16.46579,0.2929671,63.91332,0,1156,6.7228,19.57393,7.2324,43690,20.5077,1016.371,0.001464836,7.232,1014.57,0,144.50564141,16.43,141.6154,5.6056,5.50191714793,1.80078
2021-10-01T20:23:54Z,13.16373,15.43359,0.2467203,66.54062,0,1156,5.8016,18.6883,7.5264,43690,17.27042,1016.371,0.001233601,7.193,1014.57,0,143.78234504,15.57,137.9087,6.4484,6.25147210651,1.80078
2021-10-01T20:38:57Z,13.17526,15.29967,0.08626767,67.59225,0,1156,5.8996,17.89304,7.1344,43690,6.038737,1016.371,0.0004313383,7.134,1014.57,0,146.164971183,15.27,144.813,5.7036,5.67147455621,1.80078
2021-10-01T20:53:54Z,13.19262,15.26831,0.03374091,65.42793,0,1156,4.1552,17.18589,7.1736,43690,2.361864,1016.371,0.0001687046,7.095,1014.57,0,146.128787366,15.47,148.3301,5.8506,5.75481664286,1.80078
2021-10-01T21:08:57Z,13.20671,14.33397,0.03229654,70.8645,0,1156,4.1356,16.6369,7.114799,43690,2.260758,1016.465,0.0001614827,5.429,1014.664,0,150.454147987,14.57,165.3717,5.096,5.0421869645,1.80078
2021-10-01T21:23:57Z,13.22385,13.25198,0.01590727,74.45792,0,1156,3.3124,15.94557,6.487599,43690,1.113509,1016.465,7.953636e-05,6.096,1014.664,0,150.063075846,13.35,153.3762,4.7922,4.69326666071,1.80078
2021-10-01T21:38:57Z,13.25145,13.08323,0.008676694,76.32196,0,1156,5.88,15.09383,8.134,43690,0.6073686,1016.465,4.338347e-05,7.37,1014.664,0,149.247268962,13.22,144.9599,6.3504,6.26017032544,1.80078
2021-10-01T21:53:54Z,13.26841,13.08533,0.003856886,77.88332,0,1156,5.978,14.37313,7.9184,43690,0.269982,1016.465,1.928443e-05,7.918,1014.664,0,150.855096458,13.09,173.2997,6.5464,6.49826975148,1.80078
2021-10-01T22:08:56Z,13.27779,13.09994,0.0009643062,75.05831,0,1156,6.4288,13.94387,8.251599,43690,0.06750144,1016.342,4.821532e-06,7.605001,1014.541,0,153.215271465,13.17,147.7002,6.4582,6.48001658929,1.80078
2021-10-01T22:23:56Z,13.27801,13.06674,0.0,72.99218,0,1156,7.84,13.70665,8.82,43690,0.0,1016.342,0.0,8.82,1014.541,0,152.388424229,13.13,148.0389,6.5268,6.56808745562,1.80078
2021-10-01T22:38:58Z,13.2725,13.13453,0.0,72.92443,0,1156,8.055599,13.61176,9.368799,43690,0.0,1016.342,0.0,7.938,1014.541,0,151.50840551,13.17,149.7953,7.6832,7.60918101176,1.80078
2021-10-01T22:53:57Z,13.2725,13.10064,0.0,73.0261,0,1156,5.8408,13.61176,8.9964,43690,0.0,1016.342,0.0,8.229999,1014.541,0,150.720483106,13.2,156.9651,7.1049995,7.08620686471,1.80078
2021-10-01T23:08:56Z,13.2725,13.2023,0.0,76.31311,0,1156,7.6048,13.63662,9.212,43690,0.0,1017.057,0.0,8.57,1015.256,0,148.966367429,13.24,146.7157,7.1932,7.16756905325,1.80078
2021-10-01T23:24:00Z,13.2725,13.27008,0.0,75.87258,0,1156,8.4672,13.70665,9.8588,43690,0.0,1017.057,0.0,9.86,1015.256,0,143.419991661,13.3,144.6947,7.9772,7.98642328235,1.80078
2021-10-01T23:38:58Z,13.2725,13.16842,0.0,75.09318,0,1156,8.6632,13.72924,10.2704,43690,0.0,1017.057,0.0,9.76,1015.256,0,142.543566839,13.17,141.4466,8.5652,8.49648441765,1.80078
2021-10-01T23:54:00Z,13.2725,13.16842,0.0,76.0759,0,1156,7.8008,13.70665,9.4668,43690,0.0,1017.057,0.0,8.78,1015.256,0,141.192556038,13.13,148.857,7.8204,7.80034121637,1.80078
2021-10-02T00:08:59Z,13.2725,13.03287,0.0,77.29583,0,1156,8.3104,13.6818,9.2512,43690,0.0,1017.545,0.0,9.189999,1015.744,0,142.901311698,13.17,147.3653,7.9576,7.85352488889,1.80078
2021-10-02T00:23:58Z,13.2725,13.10064,0.0,78.78685,0,1156,6.487599,13.63662,8.682799,43690,0.0,1017.545,0.0,8.019999,1015.744,0,141.845379569,13.13,139.9309,7.0756,7.12144780117,1.80078
2021-10-02T00:38:58Z,13.2725,13.03287,0.0,79.70179,0,1156,6.5464,13.58917,8.0164,43690,0.0,1017.545,0.0,7.330001,1015.744,0,137.97520849,13.07,134.1325,6.6248,6.63202091228,1.80078
2021-10-02T00:54:01Z,13.27802,12.99898,0.0,80.92171,0,1156,5.1352,13.49428,7.8204,43690,0.0,1017.545,0.0,7.409,1015.744,0,134.574525061,13.07,134.0122,6.2524,6.17033211111,1.80078
2021-10-02T01:09:01Z,13.28354,12.76177,0.0,80.88783,0,1156,5.7428,13.3994,7.0364,43690,0.0,1016.731,0.0,7.036,1014.931,0,134.865736415,12.8,131.7506,5.8996,5.90574671006,1.80078
2021-10-02T01:24:00Z,13.28354,12.59234,0.0,80.75228,0,1156,6.468,13.3045,8.7808,43690,0.0,1016.731,0.0,7.566001,1014.931,0,136.865741766,12.76,136.0813,6.272,6.31166383432,1.80078
2021-10-02T01:39:01Z,13.28354,12.694,0.0,81.05726,0,1156,6.2524,13.21187,7.8204,43690,0.0,1016.731,0.0,7.507001,1014.931,0,135.139420311,12.73,136.8272,6.4092,6.40583660355,1.80078
2021-10-02T01:54:04Z,13.28354,12.76177,0.0,81.59946,0,1156,6.076,13.14183,7.643999,43690,0.0,1016.731,0.0,7.115,1014.931,0,136.120296644,12.8,135.6001,6.1936,6.16097171176,1.80078
2021-10-02T02:09:04Z,13.27802,12.76177,0.0,82.41274,0,1156,5.9976,13.0944,7.663599,43690,0.0,1016.569,0.0,6.272,1014.768,0,132.44570605,12.73,131.4378,6.4386,6.41001655952,1.80078
2021-10-02T02:24:03Z,13.28382,12.59234,0.0,82.58217,0,1156,5.488,13.02436,7.448,43690,0.0,1016.569,0.0,7.017,1014.768,0,135.727681443,12.66,137.4287,5.9388,5.95770408876,1.80078
2021-10-02T02:39:05Z,13.28974,12.52594,0.0,82.38101,0,1156,6.1544,12.92947,7.4088,43690,0.0,1016.569,0.0,6.899,1014.768,0,136.556744068,12.53,140.6323,5.8604,5.88974198225,1.80078
2021-10-02T02:54:03Z,13.28987,12.59587,0.0,82.82494,0,1156,6.2328,12.85943,7.1736,43690,0.0,1016.569,0.0,7.174,1014.768,0,137.348390804,12.66,134.0452,6.1054,6.01708329762,1.80078
2021-10-02T03:09:05Z,13.28466,12.83497,0.0,83.43791,0,1156,7.1344,12.85943,7.114799,43690,0.0,1016.942,0.0,6.468,1015.142,0,136.978982707,12.83,140.9077,5.8604,5.85007807692,1.80078
2021-10-02T03:24:02Z,13.28497,12.73227,0.0,84.08018,0,1156,5.0372,12.90687,8.055599,43690,0.0,1016.942,0.0,7.918,1015.142,0,138.968572802,12.83,142.493,6.3112,6.30793322024,1.80078
2021-10-02T03:39:05Z,13.28397,12.56102,0.0,83.4673,0,1156,4.0768,12.97691,6.1348,43690,0.0,1016.942,0.0,4.626,1015.142,0,146.696260023,12.63,142.6325,4.6648,4.43876213018,1.80078
2021-10-02T03:54:06Z,13.28359,12.59273,0.0,83.0911,0,1156,5.4292,13.00177,7.212799,43690,0.0,1016.942,0.0,5.429,1015.142,0,145.529118241,12.73,152.5393,5.292,5.25917867456,1.80078
2021-10-02T04:09:05Z,13.28354,12.25349,0.0,82.78553,0,1156,5.9584,12.97691,6.4484,43690,0.0,1016.651,0.0,5.037,1014.85,0,158.072785164,12.39,151.648,3.6064,3.93936804734,1.80078
2021-10-02T04:24:05Z,13.29001,12.35661,0.0,82.14395,0,1156,5.1352,12.85943,6.2132,43690,0.0,1016.651,0.0,5.958,1014.85,0,154.290423876,12.49,160.2898,5.0764,4.96019171598,1.80078
2021-10-02T04:39:06Z,13.29035,12.36157,0.0,82.08395,0,1156,5.488,12.71936,7.3892,43690,0.0,1016.651,0.0,6.899,1014.85,0,153.707590157,12.4,149.1881,5.5272,5.45517866864,1.80078
2021-10-02T04:54:07Z,13.29643,12.33001,0.0,81.74869,0,1156,6.9188,12.62673,7.5068,43690,0.0,1016.651,0.0,7.507001,1014.85,0,156.392137436,12.4,157.4245,5.8604,5.76715500592,1.80078
2021-10-02T05:09:06Z,13.29681,12.12675,0.0,82.18945,0,1156,5.6056,12.46406,7.84,43690,0.0,1016.249,0.0,7.095,1014.448,0,155.034147727,12.26,147.7512,5.6252,5.58576802367,1.80078
2021-10-02T05:24:07Z,13.30786,11.61767,0.0,83.71349,0,1156,1.666,12.25621,7.9184,43690,0.0,1016.249,0.0,4.665,1014.448,0,166.286378526,11.82,186.2025,3.9984,4.38367333728,1.80078
2021-10-02T05:39:07Z,13.31327,11.24672,0.0,84.56386,0,1156,2.9008,12.02351,4.5864,43690,0.0,1016.249,0.0,3.646,1014.448,0,176.414787037,11.28,165.3215,3.0184,2.98592662722,1.80078
2021-10-02T05:54:07Z,13.32053,10.57345,0.0,84.87662,0,1156,1.862,11.79306,4.606,43690,0.0,1016.249,0.0,3.293,1014.448,0,178.977671125,10.67,215.1782,2.4892,2.45649467337,1.80078
2021-10-02T06:09:07Z,13.33771,10.06768,0.0,85.66082,0,1156,0.8035999,11.31184,3.528,43690,0.0,1016.652,0.0,2.705,1014.852,0,166.317735228,10.17,38.38804,1.8424,1.80343194852,1.80078
2021-10-02T06:24:07Z,13.34876,9.694916,0.0,86.54238,0,1156,1.6072,10.7651,2.94,43690,0.0,1016.652,0.0,2.332,1014.852,0,87.3314651296,9.9,48.76136,1.7248,1.65962129822,1.80078
2021-10-02T06:39:08Z,13.36533,9.355934,0.0,87.52542,0,1156,1.7248,10.20029,2.6264,43690,0.0,1016.652,0.0,2.626,1014.852,0,85.6380472514,9.53,213.1444,1.6072,1.56533254083,1.80078
2021-10-02T06:54:08Z,13.37637,9.220341,0.0,86.91526,0,1156,2.2736,9.750698,3.4104,43690,0.0,1016.652,0.0,2.685,1014.852,0,167.764308114,9.36,74.15289,1.8032,1.83196212899,1.80078
2021-10-02T07:09:07Z,13.37834,9.907371,0.0,86.11734,0,1156,2.352,9.436665,3.9004,43690,0.0,1016.273,0.0,2.783,1014.472,0,182.118336017,9.91,171.3216,2.352,2.40105798817,1.80078
2021-10-02T07:24:08Z,13.38073,10.4231,0.0,83.9933,0,1156,2.2148,9.301113,5.194,43690,0.0,1016.273,0.0,4.606,1014.472,0,174.909891014,10.39,184.2023,2.8224,2.91692071006,1.80078
2021-10-02T07:39:09Z,13.3809,10.08476,0.0,83.68935,0,1156,1.8424,9.346294,4.2336,43690,0.0,1016.273,0.0,2.764,1014.472,0,181.402307716,10.25,198.2895,2.3128,2.35536331243,1.80078